Flag for U.S.A. Weather past 2 weeks in Redmond, Washington, U.S.A.

Now
70 °F

Scattered clouds.


Feels Like: 77 °F
Forecast: 57 / 73 °F
Wind: 7 mph from Southwest

Location: Seattle Boeing Field

Current Time: Aug 21, 2014 at 4:04:46 PM

Latest Report: Aug 21, 2014 at 2:53 PM


Visibility: 10 mi

Pressure: 30.01 "Hg

Humidity: 47%

Dew point: 49 °F

Location of RedmondLocation

Historic Weather in Redmond — Graph

°F

Redmond temperature yesterday

Maximum temperature yesterday: 72 °F (at 4:53 PM)
Minimum temperature yesterday: 61 °F (at 4:53 AM)
Average temperature yesterday: 66 °F

Past Weeks' High & Low Weather Summary

 TemperatureHumidityPressure
High93 °F (Aug 11, 3:53 PM)87% (Aug 13, 1:53 AM)30.16 "Hg (Aug 13, 1:53 AM)
Low57 °F (Aug 21, 5:53 AM)27% (Aug 11, 4:53 PM)29.77 "Hg (Aug 19, 5:53 PM)
Average71 °F60%30.00 "Hg
* Reported Aug 6 2:53 PM — Aug 21 2:53 PM, Redmond, Weather by CustomWeather, © 2014

Note: Actual official high and low records may vary slightly from our data, if they occured in-between our weather recording intervals... More about our weather records

Advertising

Redmond weather history for previous 24 hours

 ConditionsComfort  
Time TempWeatherWind HumidityBarometerVisibility
2:53 PM
Aug 21
70 °FScattered clouds.7 mph47%30.01 "Hg10 mi
1:53 PM69 °FScattered clouds.8 mph51%30.02 "Hg10 mi
12:53 PM67 °FScattered clouds.5 mph55%30.03 "Hg10 mi
11:53 AM63 °FPartly sunny.8 mph63%30.04 "Hg10 mi
10:53 AM62 °FPartly sunny.5 mph65%30.05 "Hg10 mi
9:53 AM61 °FOvercast.6 mph67%30.05 "Hg10 mi
9:00 AM61 °FPartly sunny.6 mph68%30.05 "Hg10 mi
7:53 AM58 °FBroken clouds.6 mph78%30.05 "Hg10 mi
6:53 AM57 °FPassing clouds.No wind81%30.03 "Hg10 mi
5:53 AM57 °FPartly cloudy.3 mph81%30.03 "Hg10 mi
4:53 AM58 °FPassing clouds.5 mph78%30.02 "Hg10 mi
3:53 AM58 °FPassing clouds.5 mph78%30.03 "Hg10 mi
2:53 AM58 °FClear.3 mph78%30.03 "Hg10 mi
1:53 AM59 °FClear.3 mph75%30.02 "Hg10 mi
12:53 AM60 °FClear.6 mph72%30.01 "Hg10 mi
11:53 PM
Aug 20
62 °FClear.6 mph67%30.01 "Hg10 mi
10:53 PM64 °FPassing clouds.6 mph65%30.00 "Hg10 mi
9:53 PM66 °FPassing clouds.No wind59%29.99 "Hg10 mi
8:53 PM68 °FScattered clouds.5 mph55%29.97 "Hg10 mi
7:53 PM70 °FScattered clouds.5 mph53%29.96 "Hg10 mi
6:53 PM71 °FScattered clouds.6 mph53%29.96 "Hg10 mi
5:53 PM72 °FScattered clouds.6 mph52%29.96 "Hg10 mi
4:53 PM72 °FScattered clouds.7 mph52%29.97 "Hg10 mi
Weather by CustomWeather, © 2014

See weather overviewHow to use our weather pages